This is the latest recevied weather packets stored in our database for station/object IZ1UQG-2. If no packets are shown the sender has not sent any weather packets the latest 10 day(s).
| Time | Temp. | Humidity | Pressure | Rain* | Wind** | Luminosity | Snow |
|---|---|---|---|---|---|---|---|
| 1777977244 | 12.22° C | 88% | 1012.7 hPa | 0 mm | - | 142 W/m² | - |
| 1777977124 | 12.22° C | 88% | 1012.6 hPa | 0 mm | - | 128 W/m² | - |
| 1777976884 | 12.22° C | 87% | 1012.5 hPa | 0 mm | - | 111 W/m² | - |
| 1777976284 | 12.78° C | 87% | 1012.5 hPa | 0.25 mm | - | 79 W/m² | - |
| 1777975563 | 12.22° C | 87% | 1012.6 hPa | 0.51 mm | - | 111 W/m² | - |
| 1777975444 | 12.78° C | 88% | 1012.5 hPa | 0.51 mm | - | 123 W/m² | - |
| 1777975324 | 12.78° C | 88% | 1012.6 hPa | 0.51 mm | - | 128 W/m² | - |
| 1777973824 | 12.22° C | 88% | 1012.7 hPa | 0.51 mm | - | 253 W/m² | - |
| 1777973224 | 12.22° C | 88% | 1012.7 hPa | 0.25 mm | - | 141 W/m² | - |
| 1777970943 | 12.22° C | 90% | 1012.6 hPa | 0.51 mm | - | 128 W/m² | - |
| 1777970464 | 11.67° C | 90% | 1012.8 hPa | 0.51 mm | - | 86 W/m² | - |
| 1777970223 | 11.67° C | 90% | 1012.8 hPa | 0.76 mm | - | 79 W/m² | - |
| 1777968664 | 11.67° C | 91% | 1012.7 hPa | 2.79 mm | - | 86 W/m² | - |
| 1777968004 | 11.11° C | 91% | 1012.7 hPa | 3.56 mm | - | 81 W/m² | - |
| 1777967884 | 11.11° C | 91% | 1012.8 hPa | 3.81 mm | - | 81 W/m² | - |
| 1777967704 | 11.11° C | 90% | 1012.8 hPa | 3.81 mm | - | 70 W/m² | - |
| 1777966804 | 11.11° C | 91% | 1012.8 hPa | 4.83 mm | - | 67 W/m² | - |
| 1777966625 | 11.11° C | 91% | 1012.8 hPa | 4.83 mm | - | 67 W/m² | - |
| 1777966205 | 11.11° C | 91% | 1012.9 hPa | 4.83 mm | - | 51 W/m² | - |
| 1777966024 | 11.67° C | 91% | 1012.9 hPa | 4.83 mm | - | 42 W/m² | - |
| 1777965604 | 11.67° C | 90% | 1012.8 hPa | 4.32 mm | - | 25 W/m² | - |
| 1777965184 | 11.67° C | 90% | 1012.8 hPa | 4.57 mm | - | 18 W/m² | - |
| 1777964464 | 11.11° C | 90% | 1012.6 hPa | 4.32 mm | - | 21 W/m² | - |
| 1777964344 | 11.11° C | 90% | 1012.5 hPa | 4.32 mm | - | 21 W/m² | - |
| 1777964164 | 11.11° C | 90% | 1012.4 hPa | 4.32 mm | - | 19 W/m² | - |
* Rain latest hour (hover to see other rain measurements)
** Current wind speed in m/s (hover to see current wind gust speed)